Regional Weather Roundup
Issued by NWS Wakefield, VA

Home | Current Version | Previous Version | Text Only | Print | Product List | Glossary Off
Versions: 1 2 3 4 5 6 7 8 9 10 11 12 13 14 15 16 17 18 19 20 21 22 23 24 25 26 27 28 29 30 31 32 33 34 35 36 37 38 39 40 41 42 43 44 45 46 47 48 49 50

000
ASUS41 KAKQ 300114
RWRAKQ

REGIONAL WEATHER ROUNDUP
NATIONAL WEATHER SERVICE WAKEFIELD VA
900 PM EDT MON JUN 29 2015

Note: "fair" indicates few or no clouds below 12,000 feet with no
significant weather and/or obstructions to visibility. * = Denotes
station may not report precipitation (e.g., rain,snow,etc.),
thunder or fog.

VAZ042-051-052>054-056-300200-
NORTHERN VIRGINIA

CITY           SKY/WX    TMP DP  RH WIND       PRES   REMARKS
WASH NATIONAL  PTCLDY    77  61  57 S6        29.94R
DULLES         MOCLDY    74  56  53 S5        29.94R
FORT BELVOIR   CLEAR     69  62  80 E1        29.94R
QUANTICO       CLEAR     78  58  49 VRB3      29.94R
FREDERICKSBRG* CLEAR     74  65  74 CALM      29.93S
STAFFORD*      CLEAR     67  63  86 CALM      29.98R
WARRENTON      CLEAR     70  65  82 SE3       29.93S
CULPEPER*      CLOUDY    70  61  73 CALM      29.94S
MANASSAS*      CLEAR     72  64  78 CALM        N/A
LEESBURG*      PTCLDY    77  61  57 S10       29.94F
WINCHESTER     PTCLDY    72  59  64 SE5       29.93F
FRONT ROYAL*   MOCLDY    72  59  64 S3        29.92F
LURAY*         CLOUDY    75  61  60 SW5       29.94S
$$

VAZ048-049-060>072-079>083-300200-
CENTRAL AND SOUTH CENTRAL VIRGINIA

CITY           SKY/WX    TMP DP  RH WIND       PRES   REMARKS
RICHMOND       PTCLDY    75  64  68 SE5       29.95R
CHESTERFIELD*  NOT AVBL
PETERSBURG*    PTCLDY    72  72 100 CALM      29.95S
HANOVER        CLEAR     71  65  81 CALM      29.96R
TAPPAHANNOCK*  CLEAR     70  64  80 CALM      29.96R
QUINTON*       FAIR      73  66  78 CALM      29.95R
CHARLOTTSVILLE PTCLDY    72  60  66 S3        29.94S
GORDONSVILLE*  FAIR      68  63  83 CALM      29.94S
ORANGE*        PTCLDY    72  63  73 CALM      29.96S
LOUISA*        CLEAR     66  64  94 CALM      29.94S
BUMPASS*       FAIR      70  65  86 CALM      29.95R
FARMVILLE*     CLOUDY    74  64  69 CALM      29.94R
CREWE*         MOCLDY    72  68  86 CALM      29.95S
FORT PICKETT*  FAIR      73  66  79 CALM      29.96R
CHASE CITY*    FAIR      75  69  83 CALM      29.96R
CLARKSVILLE*   FAIR      72  68  88 CALM      29.95R
SOUTH HILL*    PTCLDY    72  68  86 CALM      30.01R
LAWRENCEVILLE* NOT AVBL
EMPORIA*       PTCLDY    72  68  88 CALM      29.97R
$$

VAZ088>098-300200-
SOUTHEAST VIRGINIA

CITY           SKY/WX    TMP DP  RH WIND       PRES   REMARKS
NORFOLK        CLEAR     76  64  66 SE6       29.96R
VIRGINIA BEACH PTCLDY    78  65  63 SE8       29.95S
NORFOLK NAVAL  PTCLDY    76  64  66 SE7       29.97R
WEST POINT*    PTCLDY    76  61  60 E5        29.96S
SALUDA*        FAIR      74  63  69 SE8       29.95S
NEWPORT NEWS   PTCLDY    73  66  78 CALM      29.95S
LANGLEY AFB    PTCLDY    78  66  66 SE7       29.94R
FORT EUSTIS    PTCLDY    75  64  68 SE3       29.94R
WILLIAMSBURG*  PTCLDY    75  68  78 CALM      29.96S
HR EXEC AP*    FAIR      73  64  73 SE7       29.98R
FRANKLIN*      PTCLDY    77  69  75 SE5       29.95S
WAKEFIELD      PTCLDY    75  66  73 CALM      29.95R
$$

VAZ020-022-025-037-045-300200-
WEST CENTRAL AND SOUTHWEST VIRGINIA

CITY           SKY/WX    TMP DP  RH WIND       PRES   REMARKS
STAUNTON*      MOCLDY    74  60  62 S5        29.98R
WAYNESBORO*    FAIR      70  59  68 CALM      29.98R
HOT SPRINGS VA CLEAR     63  56  76 S8        30.04S
LYNCHBURG      PTCLDY    68  62  81 CALM      29.97R
DANVILLE       CLOUDY    74  66  76 CALM      29.95R
SOUTH BOSTON*  MOCLDY    74  66  75 MISG      29.95R
MARTINSVILLE   PTCLDY    71  71 100 CALM      29.98S
ROANOKE        MOCLDY    74  58  57 S5        29.97F
BLACKSBURG     MOCLDY    71  58  62 S3        30.02S
DUBLIN*        MOCLDY    70  60  70 CALM      30.01R
MARION*        MOCLDY    70  57  63 CALM      30.03R
HILLSVILLE*    CLEAR     67  57  70 S6        30.04S
RICHLANDS*     MOCLDY    70  60  72 S9        29.99S
WISE*          CLOUDY    70  59  68 SW9       30.00R
ABINGDON*      CLOUDY    74  61  62 CALM      29.98R
$$

MDZ021>025-VAZ099-100-300200-
SOUTHERN MARYLAND AND THE DELMARVA PENINSULA

CITY           SKY/WX    TMP DP  RH WIND       PRES   REMARKS
PATUXENT RIVER PTCLDY    74  61  63 S6        29.94S
BAY BRIDGE APT   N/A     75  57  53 S6        29.95R
LEONARDTOWN    CLEAR     70  61  73 CALM      29.97R
DOVER          CLEAR     73  61  68 S5        29.93S
GEORGETOWN     CLEAR     72  57  59 CALM      29.97R
EASTON         NOT AVBL
CAMBRIDGE      CLEAR     72  61  68 CALM      29.95S
SALISBURY      CLEAR     71  60  68 CALM      29.96S
OCEAN CITY     CLEAR     71  63  75 CALM      29.97R
WALLOPS ISLAND CLEAR     72  66  81 S7        29.98R
ACCOMACK*      CLEAR     70  64  83 SE6       29.97R
$$

NCZ012>017-030>032-300200-
NORTH CENTRAL AND EASTERN NORTH CAROLINA

CITY           SKY/WX    TMP DP  RH WIND       PRES   REMARKS
ROANOKE RAPIDS FAIR      73  68  83 CALM      29.95R
RALEIGH        PTCLDY    79  65  62 CALM      29.95R
ELIZABETH CITY PTCLDY    77  70  79 SE6       29.96R
AHOSKIE*       PTCLDY    73  67  82 CALM      29.96R
EDENTON*         N/A     78  67  69 SE5       29.96R
CURRITUCK*     PTCLDY    75  66  73 CALM      29.97S
KILL DEVIL HLS PTCLDY    76  68  76 SE3       29.96R
MANTEO         PTCLDY    75  69  82 SE6       29.97S
CAPE HATTERAS  MOCLDY    78  72  81 S5        29.96S
TARBORO*         N/A     78  68  72 SE3       29.96R
GOLDSBORO      NOT AVBL
WASHINGTON     PTCLDY    78  65  64 SE3       29.95S
GREENVILLE     MOCLDY    81  66  61 S7        29.97R
NEW BERN       PTCLDY    78  70  76 S5        29.96S
WILMINGTON     PTCLDY    80  68  66 SW8       29.95S
$$

VAZ048-300200-
ELSEWHERE

CITY           SKY/WX    TMP DP  RH WIND       PRES   REMARKS
HARRISBURG PA  MOCLDY    75  57  53 SW6       29.92R
BALTIMORE      PTCLDY    74  54  49 S3        29.93R
ANNAPOLIS      CLEAR     74  60  61 S7        29.94R
ANDREWS AFB    MOCLDY    71  62  74 S7        29.94R
PHILADELPHIA   PTCLDY    77  59  53 SW6       29.93R
HENDERSON NC   PTCLDY    77  61  58 CALM      29.96R
GREENSBORO     PTCLDY    77  58  51 SE5       29.95S
ROCKY MOUNT    PTCLDY    77  68  73 CALM      29.95R
$$

VAZ100-300200-
MARINE

STATION/POSITION TIME  TEMP    WIND        PRES    WAVE   SWELL
                       AIR SEA DIR/SP/G            HT/PER HT/PER
                 (UTC) (F)     (DEG/KT/KT) (MB)    (FT/S) (FT/S)
BRANDYWINE LGT   0000   77 72  250/ 10/ 10 1014.2R
CAPE MAY NJ      0000   74 78  150/  3/  3 1013.9R
LEWES DE         0000   78 73  220/  4/  5 1014.1R
15NM E FENWICK I 0050   73 72              1014.3R   4/ 8
OCEAN-CITY-INLET 0000   73 73  210/  8/ 10 1014.4R
WACHAPREAGUE VA  0000   76 80  180/  7/  9 1014.6R
GOOSES REEF MD   0100   77 77  150/ 10/ 12 1015.0S
COVE POINT MD    0000   77     180/  8/ 10 1014.7R
SOLOMONS ISLAND  0000      80                N/A
BISHOPS HEAD MD  0000   78     190/  8/  9 1013.9S
PINEY POINT MD   0000          210/  7/  8   N/A
CAMBRIDGE MD     0000   77 79  170/  2/  6 1014.1R
LEWISETTA VA     0000   77 81  160/  7/  8 1013.7R
RAPPAHANNOCK LGT 0000          140/ 10/ 11 1014.8R
STINGRAY PT      0100   78 81  160/ 14/ 16 1014.5R
YORK RVR RNG VA  0000   77     140/ 16/ 17 1013.5S
YORKTOWN VA      0000   78 80  130/  7/  9 1013.8S
JAMESTOWN VA     0100   78 83  110/  6/  8   N/A
DOMINION TERM VA 0000   80     170/  9/ 11 1013.8R
KIPTOPEKE VA     0000      85  140/  7/ 10   N/A
CHES BAY BRIDGE  0000   77 77  130/ 10/ 12 1014.0R
CAPE HENRY VA    0000   76     140/  9/ 11 1012.8R
CHESAPEAKE LGHT  0000   76     140/ 13/ 14 1015.1S
WILLOUBY STN VA  0000   79     120/  7/ 10 1015.0R
CAPE HENRY BUOY  0028      78                N/A     3/ 9
1ST LANDING BUOY 0100      77              1014.2R   2/ 3
CAPE CHARLES BUO 0026      76                N/A     2/ 8   2/ 8
OFFSHORE WE BUOY 0011      78                N/A     3/ 7   3/ 7
64NM E OF VA BCH 0050   76 77  110/ 10/ 10 1014.5S   3/ 8   3/ 8
DUCK PIER NC     0000   76 68  130/ 11/ 11 1013.5S
44100 DUCK FRF   0024      76                N/A     3/ 9
44056 DUCK FRF   0011      74                N/A     2/ 8
OREGON INLET NC  0000   76 81   70/  5/  7 1014.6R
HATTERAS NC      0000   80 81  210/  2/  5 1014.3R
DIAMOND SHLS NC  0050   79 81  290/  6/  8 1014.3S   4/ 7   3/ 7
CAPE LOOKOUT NC  0100   79     230/  8/ 10 1014.0F
$$



USA.gov is the U.S. government's official web portal to all federal, state and local government web resources and services.